This is the latest recevied weather packets stored in our database for station/object KG7MRB. If no packets are shown the sender has not sent any weather packets the latest 10 day(s).
| Time | Temp. | Humidity | Pressure | Rain* | Wind** | Luminosity | Snow |
|---|---|---|---|---|---|---|---|
| 1777588135 | 25° C | 45% | 1036.8 hPa | 0 mm | - | 541 W/m² | - |
| 1777587832 | 23.89° C | 45% | 1036.7 hPa | 0 mm | - | 592 W/m² | - |
| 1777587531 | 23.89° C | 44% | 1036.9 hPa | 0 mm | - | 545 W/m² | - |
| 1777587227 | 24.44° C | 43% | 1036.8 hPa | 0 mm | - | 568 W/m² | - |
| 1777586923 | 23.89° C | 43% | 1036.7 hPa | 0 mm | - | 509 W/m² | - |
| 1777586619 | 23.33° C | 49% | 1036.9 hPa | 0 mm | - | 540 W/m² | - |
| 1777586315 | 22.78° C | 48% | 1036.9 hPa | 0 mm | - | 415 W/m² | - |
| 1777586013 | 23.33° C | 45% | 1037 hPa | 0 mm | - | 568 W/m² | - |
| 1777585708 | 23.89° C | 44% | 1037 hPa | 0 mm | - | 701 W/m² | - |
| 1777585407 | 23.33° C | 48% | 1037.1 hPa | 0 mm | - | 704 W/m² | - |
| 1777585102 | 23.89° C | 47% | 1037 hPa | 0 mm | - | 606 W/m² | - |
| 1777584799 | 22.78° C | 46% | 1037.1 hPa | 0 mm | - | 756 W/m² | - |
| 1777584497 | 22.78° C | 46% | 1037.3 hPa | 0 mm | - | 401 W/m² | - |
| 1777584193 | 22.22° C | 46% | 1037.3 hPa | 0 mm | - | 578 W/m² | - |
| 1777583892 | 22.22° C | 46% | 1037.5 hPa | 0 mm | - | 434 W/m² | - |
| 1777583588 | 22.22° C | 46% | 1037.4 hPa | 0 mm | - | 273 W/m² | - |
| 1777583287 | 22.22° C | 48% | 1037.3 hPa | 0 mm | - | 314 W/m² | - |
| 1777582982 | 22.22° C | 48% | 1037.3 hPa | 0 mm | - | 395 W/m² | - |
| 1777582680 | 22.22° C | 47% | 1037.1 hPa | 0 mm | - | 287 W/m² | - |
| 1777582375 | 23.33° C | 46% | 1037.3 hPa | 0 mm | - | 298 W/m² | - |
| 1777582073 | 23.89° C | 45% | 1037.2 hPa | 0 mm | - | 603 W/m² | - |
| 1777581768 | 23.89° C | 45% | 1037.3 hPa | 0 mm | - | 490 W/m² | - |
| 1777581467 | 23.33° C | 44% | 1037.2 hPa | 0 mm | - | 568 W/m² | - |
| 1777581162 | 22.78° C | 44% | 1037.2 hPa | 0 mm | - | 556 W/m² | - |
| 1777580856 | 22.22° C | 46% | 1037.3 hPa | 0 mm | - | 473 W/m² | - |
* Rain latest hour (hover to see other rain measurements)
** Current wind speed in m/s (hover to see current wind gust speed)